This is the latest recevied weather packets stored in our database for station/object SP9WP-10. If no packets are shown the sender has not sent any weather packets the latest 10 day(s).
| Time | Temp. | Humidity | Pressure | Rain* | Wind** | Luminosity | Snow |
|---|---|---|---|---|---|---|---|
| 1788047410 | 22.22° C | 56% | 994.5 hPa | - | - | - | - |
| 1788046809 | 22.22° C | 58% | 994.5 hPa | - | - | - | - |
| 1788046209 | 22.22° C | 57% | 994.4 hPa | - | - | - | - |
| 1788045609 | 22.22° C | 56% | 994.3 hPa | - | - | - | - |
| 1788045009 | 22.22° C | 57% | 994.3 hPa | - | - | - | - |
| 1788044409 | 22.78° C | 57% | 994.3 hPa | - | - | - | - |
| 1788043809 | 22.78° C | 56% | 994.4 hPa | - | - | - | - |
| 1788043208 | 22.78° C | 56% | 994.4 hPa | - | - | - | - |
| 1788042608 | 23.33° C | 57% | 994.3 hPa | - | - | - | - |
| 1788042007 | 23.89° C | 54% | 994.3 hPa | - | - | - | - |
| 1788041407 | 23.33° C | 55% | 994.3 hPa | - | - | - | - |
| 1788040807 | 23.89° C | 51% | 994.3 hPa | - | - | - | - |
| 1788040207 | 23.89° C | 51% | 994.4 hPa | - | - | - | - |
| 1788039607 | 23.89° C | 51% | 994.3 hPa | - | - | - | - |
| 1788039007 | 24.44° C | 51% | 994.4 hPa | - | - | - | - |
| 1788038406 | 24.44° C | 51% | 994.3 hPa | - | - | - | - |
| 1788037806 | 24.44° C | 51% | 994.2 hPa | - | - | - | - |
| 1788037206 | 24.44° C | 52% | 994.3 hPa | - | - | - | - |
| 1788036606 | 25° C | 50% | 994.3 hPa | - | - | - | - |
| 1788036006 | 25° C | 50% | 994.3 hPa | - | - | - | - |
| 1788035406 | 25.56° C | 50% | 994.3 hPa | - | - | - | - |
| 1788034806 | 25.56° C | 50% | 994.2 hPa | - | - | - | - |
| 1788034205 | 25.56° C | 50% | 994.2 hPa | - | - | - | - |
| 1788033605 | 26.11° C | 50% | 994.1 hPa | - | - | - | - |
| 1788033005 | 26.11° C | 50% | 994.2 hPa | - | - | - | - |
* Rain since midnight (hover to see other rain measurements)
** Current wind speed in m/s (hover to see current wind gust speed)